Regional Weather Roundup
Issued by NWS

Home | Current Version | Previous Version | Graphics & Text | Print | Product List | Glossary On
Versions: 1 2 3 4 5 6 7 8 9 10 11 12 13 14 15 16 17 18 19 20 21 22 23 24 25 26 27 28 29 30 31 32 33 34 35 36 37 38 39 40 41 42 43 44 45 46 47 48 49 50
000
ASUS45 KBOU 171010
RWRCO

WEATHER ROUNDUP FOR COLORADO
NATIONAL WEATHER SERVICE DENVER/BOULDER CO
300 AM MST WED JAN 17 2018

NOTE: "FAIR" INDICATES FEW OR NO CLOUDS BELOW 12000 FEET WITH NO
SIGNIFICANT WEATHER AND/OR OBSTRUCTIONS TO VISIBILITY.

COZ001>005-013-030-031-171100-
...NORTHWEST COLORADO...

CITY           SKY/WX    TMP DP  RH WIND       PRES   REMARKS
CRAIG          FAIR       3  -3  76 W3        30.37R
HAYDEN         FAIR      10   0  63 E13       30.38R WCI  -5
MEEKER         FAIR      15   7  70 CALM      30.36R
RABBIT EARS PA FAIR      14   7  73 W9G16     30.31R WCI   2
STEAMBOAT SPGS FAIR       1  -4  81 E3        30.37S
WALDEN         FAIR       0  -9  65 SE5       30.34S WCI -10
$$

COZ006>008-011-171100-
...WEST CENTRAL VALLEYS...

CITY           SKY/WX    TMP DP  RH WIND       PRES   REMARKS
GRAND JUNCTION FAIR      22  13  68 SE7       30.38R WCI  13
MONTROSE       FAIR      15  10  80 CALM      30.41R
EAGLE          FAIR       5  -1  76 CALM      30.47R
RIFLE          FAIR      16  11  80 CALM      30.41S
DELTA          FAIR      18  11  75 E3        30.40F
NUCLA          FAIR      19  12  73 SE3       30.40S
$$

COZ017>023-064>068-171100-
...SOUTHWEST COLORADO...

CITY           SKY/WX    TMP DP  RH WIND       PRES   REMARKS
DURANGO        FAIR      15  12  88 CALM      30.34S
CORTEZ         FAIR      14  11  87 NE5       30.36S WCI   6
PAGOSA SPRINGS FAIR      17  16  96 CALM      30.33F
TELLURIDE      FAIR      18  -1  42 SE7       30.34F WCI   9
WOLF CREEK PAS FAIR      21 -18  16 NW5       30.37F WCI  15
$$

COZ009-010-012-014-032>034-037-058>063-171100-
...CENTRAL COLORADO...

CITY           SKY/WX    TMP DP  RH WIND       PRES   REMARKS
ASPEN          FAIR      10  -3  55 SW7       30.35S WCI  -1
BUENA VISTA    FAIR       8  -1  65 CALM      30.32R
COPPER MTN     NOT AVBL
BERTHOUD PASS  FAIR      12   0  57 NW30G37   30.28S WCI  -9
COTTONWOOD PAS   N/A     30 -20  10 NW6       30.29S WCI  24
GUNNISON       FAIR       0  -4  83 CALM      30.42S
KREMMLING      FAIR       1  -6  71 CALM      30.46R
LEADVILLE      FAIR       8 -13  37 NE10      30.31R WCI  -6
MONARCH PASS   FAIR      18  -9  29 W13       30.42S WCI   4
SALIDA         FAIR      20   2  46 N13       30.39R WCI   7
SUNLIGHT       FAIR      21 -33   8 NW3       30.38S
WILKERSON PASS FAIR      25 -26  10 NW9G17    30.31S WCI  15
$$

COZ069>075-171100-
...SAN LUIS VALLEY/SANGRE DE CRISTO MOUNTAINS...

CITY           SKY/WX    TMP DP  RH WIND       PRES   REMARKS
ALAMOSA        FAIR       0  -4  83 CALM      30.37R
DEL NORTE      FAIR       7   3  83 W6        30.36S WCI  -3
LA VETA PASS   FAIR      14  10  85 SW28        N/A  WCI  -6
SAGUACHE       FAIR       9   3  78 NW10      30.37S WCI  -6
$$

COZ035-036-038>040-171100-
...NORTHERN COLORADO FRONT RANGE...

CITY           SKY/WX    TMP DP  RH WIND       PRES   REMARKS
DENVER INTL AP FAIR      18   5  57 SW3       30.21R
DMNS CITY PARK NOT AVBL
AURORA         CLEAR     23   1  38 CALM      30.20R
FRONT RANGE AP FAIR      21   8  57 CALM      30.21R
ERIE MUNI ARPT FAIR       9   6  89 S3        30.28S
BOULDER MUN AP FAIR      19  14  79 CALM      30.20S
CENTENNIAL     FAIR      22   4  46 SE6       30.19S WCI  14
BROOMFIELD     FAIR      25  10  54 CALM      30.20R
FORT COLLINS   FAIR      12   9  87 CALM      30.23R
LONGMONT       FAIR      10   5  80 CALM      30.24S
$$

COZ041-046-047-076>085-087-088-171100-
...PIKES PEAK/PALMER DIVIDE AND SOUTHERN FOOTHILLS...

CITY           SKY/WX    TMP DP  RH WIND       PRES   REMARKS
COLO. SPRINGS  FAIR      15   4  61 N7        30.21F WCI   5
A. F. ACADEMY  FAIR      10   1  65 N10       30.20S WCI  -4
SCHRIEVER AFB  FAIR      24   3  40 NW6       30.21F WCI  17
CHEYENNE MTN   FAIR      34  -3  21 CALM      30.14F
ELLICOTT         N/A    N/A N/A N/A NE3         N/A
FALCON         FAIR      15   1  52 W6        30.21F WCI   7
FORT CARSON    FAIR      15   5  66 N9        30.20F WCI   3
LIMON          FAIR      -1  -4  87 N8        30.22F WCI -15
MONUMENT HILL  FAIR      23   0  36 S9        30.21S WCI  13
CANON CITY     FAIR      32  12  43 W17G23    30.22S WCI  21
WALSENBURG     FAIR      30  14  51 SW5       30.23S WCI  25
TRINIDAD       FAIR      22  14  71 W14       30.23F WCI   9
$$

COZ042>045-048>051-090-091-171100-
...NORTHEAST COLORADO...

CITY           SKY/WX    TMP DP  RH WIND       PRES   REMARKS
GREELEY ARPT   FAIR       3  -1  83 NW7       30.25S WCI  -9
AKRON          FAIR      15   6  67 W12       30.22S WCI   2
BURLINGTON     FAIR      12   2  64 S10       30.27F WCI  -1
WRAY           FAIR      10   3  72 CALM      30.28F
YUMA           FAIR       7   1  78 W10       30.24F WCI  -8
STERLING       FAIR       3   0  85 SW5       30.26S WCI  -6
HOLYOKE        FAIR       5   0  78 W8        30.28S WCI  -8
FORT MORGAN    FAIR       5  -2  73 W3        30.24S
$$

COZ086-089-092>099-171100-
...SOUTHEAST COLORADO...

CITY           SKY/WX    TMP DP  RH WIND       PRES   REMARKS
PUEBLO         FAIR       5   0  79 W3        30.26F
LA JUNTA       FAIR      11   0  61 SW5       30.29F WCI   3
LAMAR          FAIR      -2  -9  72 SW6       30.32F WCI -14
SPRINGFIELD      N/A      5   2  87 W8        30.28S WCI  -8
$$



USA.gov is the U.S. government's official web portal to all federal, state and local government web resources and services.